Wind_Speed
7 8 8 2 7 1 3 7 7 11 9 10 12 13 13 15 14 13 13 10 11 11 11 10 10 10 12 14 14 14 15 15 14 14 13 14 14 15 15 15 15 13 15 15 14 13 13 12 11
8 8 8 13 6 6 8 6 10 13 12 15 11 14 14 14 12 12 13 11 11 11 11 10 12 13 12 12 14 14 14 14 13 14 13 13 13 13 14 13 13 13 13 15 15 14 12 13 13
7 8 9 14 2 13 16 10 12 11 14 20 16 13 14 13 13 11 13 12 11 11 11 10 12 14 14 14 14 14 13 13 13 12 13 12 13 12 12 13 12 13 12 13 13 14 14 14 13
6 7 6 9 13 17 17 15 16 13 14 17 17 14 14 13 13 11 14 11 11 10 10 11 11 14 15 15 15 15 13 13 12 10 10 11 11 11 11 11 11 11 12 10 16 15 14 13 12
6 8 10 6 10 16 15 15 18 17 16 15 18 15 14 14 14 12 13 11 10 10 10 10 12 13 15 16 16 16 14 14 12 10 10 11 11 10 9 8 11 12 14 14 14 13 13 13 13
5 12 4 4 16 20 18 13 13 18 20 17 16 15 14 13 13 13 12 11 10 9 10 10 11 13 15 15 17 16 14 13 12 11 11 12 12 11 10 11 14 15 15 16 15 14 12 12 11
6 11 12 3 14 19 20 16 14 15 18 17 17 15 14 13 11 12 12 11 11 10 9 9 11 13 14 14 16 16 14 12 12 12 12 12 14 15 15 16 16 15 15 16 15 14 12 11 9
7 9 13 12 13 28 24 20 19 15 16 16 19 18 17 12 12 11 13 11 11 9 9 9 11 13 14 14 14 14 13 12 12 11 11 11 12 15 16 14 13 14 15 15 15 14 12 11 11
6 7 13 16 6 29 20 18 19 19 19 16 15 15 19 14 12 10 13 11 12 10 9 9 10 12 13 13 12 14 13 12 11 11 11 11 8 12 14 12 13 15 16 15 15 15 14 13 14
8 7 12 11 16 16 21 23 20 19 19 18 17 12 13 13 14 10 12 11 11 10 10 11 12 13 12 13 16 16 15 13 12 10 11 12 12 12 11 10 14 17 16 14 14 14 16 16 18
5 5 8 11 9 3 18 23 19 21 19 21 23 16 10 15 15 10 12 11 9 9 10 12 13 13 14 14 16 17 16 15 14 11 12 13 13 12 13 10 21 20 18 15 15 14 17 19 19
4 4 7 13 2 9 17 28 12 17 19 20 20 22 15 12 15 12 10 9 10 11 11 13 13 13 14 15 15 17 17 15 14 13 12 13 14 15 15 17 24 20 17 15 14 15 17 16 16
4 4 4 6 2 1 15 15 20 21 19 20 18 19 17 12 13 13 9 9 10 11 10 12 15 13 13 16 15 17 17 16 15 14 13 12 13 16 20 21 22 20 18 16 16 16 16 16 15
5 3 3 4 10 6 22 8 7 20 20 18 18 18 17 15 14 14 10 9 11 11 10 10 15 15 12 15 16 17 18 18 16 15 14 14 15 18 20 22 21 20 18 16 19 18 17 15 17
7 4 2 11 9 8 11 6 18 19 19 17 18 18 17 15 13 14 12 9 9 11 11 10 13 14 13 15 15 16 16 17 16 17 16 18 17 18 19 22 22 19 17 16 18 17 16 15 17
11 7 3 2 1 6 11 10 17 15 8 22 20 19 17 17 15 14 12 9 9 10 11 11 13 15 14 17 15 14 15 14 14 15 16 19 18 20 21 20 20 19 17 16 17 17 15 14 16
15 12 8 5 6 7 11 9 13 14 18 20 22 21 18 18 15 14 13 10 10 10 12 13 14 13 12 14 15 15 16 17 16 16 15 17 20 20 20 20 18 17 16 17 17 17 15 14 16
19 15 12 9 10 9 8 11 11 21 19 23 23 21 21 20 19 17 16 13 11 10 12 14 14 14 14 12 12 16 16 18 17 15 16 14 17 19 19 17 15 15 16 17 17 16 14 13 14
22 20 16 15 11 14 10 7 15 28 27 24 23 21 21 20 21 19 17 15 13 12 12 13 13 15 15 13 13 14 17 17 16 15 15 15 15 14 15 13 13 13 14 17 17 16 13 11 12
24 23 22 18 14 13 16 17 15 23 29 26 25 24 22 19 21 20 18 17 15 14 14 13 13 14 15 14 12 14 15 16 16 15 15 15 14 13 13 12 11 11 12 16 16 15 12 11 12
25 23 21 19 17 13 9 10 10 37 35 27 26 26 25 22 22 21 20 18 17 15 15 14 14 13 12 12 12 10 14 14 15 15 15 14 14 13 13 11 11 12 14 16 15 14 12 11 11
26 25 23 22 21 15 13 18 17 30 36 31 28 27 26 26 26 25 21 21 19 16 15 16 14 14 13 12 12 11 11 12 13 15 15 14 14 14 13 12 11 12 14 16 16 14 11 9 10
30 27 28 28 24 20 15 21 24 28 31 29 29 28 26 28 26 22 22 21 21 20 16 16 16 15 15 12 11 12 10 11 12 14 15 14 13 14 14 13 12 13 14 13 14 14 12 10 9
35 34 31 30 30 24 21 16 15 11 25 29 31 28 26 24 26 26 25 24 24 22 21 19 17 17 16 15 13 11 12 11 10 13 14 13 12 14 14 13 12 13 12 11 12 13 14 12 10
41 39 36 34 31 24 22 15 14 17 13 6 18 32 29 28 27 24 21 24 25 24 23 22 20 19 18 16 16 15 14 15 14 12 13 12 12 12 12 13 13 12 13 12 12 12 13 14 13
42 41 41 38 30 24 24 19 15 16 11 10 8 32 33 29 25 23 23 25 26 26 24 23 22 20 20 18 17 16 15 16 15 14 14 14 13 12 13 14 14 14 13 13 14 14 14 15 14
42 44 41 39 31 28 28 21 17 11 9 7 5 14 26 22 24 26 24 25 26 25 24 23 23 23 22 21 20 18 16 16 15 14 13 13 12 13 13 13 14 14 14 14 14 14 15 15 15
40 37 42 42 37 35 32 26 23 17 13 13 11 14 19 21 23 25 26 28 25 27 24 25 24 24 24 21 21 21 19 16 16 15 13 13 13 12 12 12 12 12 13 15 15 16 16 17 17
41 42 44 42 38 35 33 29 20 15 17 20 22 18 21 21 21 25 31 33 26 31 29 23 26 25 27 25 23 22 22 20 18 16 15 14 14 13 12 12 12 13 13 14 14 15 16 17 17
38 38 40 43 42 39 33 29 24 19 18 25 22 23 18 19 17 23 22 25 18 29 28 34 31 29 27 28 27 25 24 24 23 21 20 18 16 15 16 15 14 14 14 13 15 16 16 18 19
Wind_Direction
329 346 333 288 302 72 112 145 124 136 129 136 136 119 111 104 100 100 100 90 100 104 107 112 115 116 117 121 119 118 120 119 114 112 109 106 105 109 106 102 102 107 110 109 108 107 107 103 100
336 331 338 307 225 191 178 149 144 146 151 141 141 121 111 102 100 101 103 98 93 97 98 103 109 115 119 122 126 127 127 122 116 115 114 108 108 109 108 107 105 103 110 110 110 105 101 97 97
333 332 331 342 141 183 174 164 152 160 163 144 140 127 111 110 110 110 107 102 99 98 95 94 98 105 117 126 129 131 130 125 120 117 118 113 108 111 116 115 110 111 114 108 108 106 105 101 104
328 316 325 28 140 133 153 155 155 154 157 146 133 127 116 110 107 108 108 109 107 99 92 91 93 102 106 117 130 132 127 120 113 108 106 108 113 119 126 124 121 117 114 124 100 100 101 96 97
310 311 316 307 193 171 154 164 160 145 151 152 134 126 117 112 103 104 108 106 102 98 90 90 94 101 101 109 118 122 122 120 119 116 113 112 118 120 118 125 125 117 108 104 99 102 101 99 96
291 340 250 127 162 163 149 158 155 150 148 149 139 125 114 105 102 105 104 106 103 91 88 89 97 101 100 105 109 112 114 116 114 118 114 115 120 113 103 109 123 124 117 111 110 109 103 99 94
283 333 339 83 192 182 149 154 156 153 143 144 136 126 112 106 104 105 101 104 102 93 85 93 103 105 107 109 109 109 108 109 111 112 113 119 123 119 108 110 116 118 117 116 113 107 101 102 100
257 307 339 336 236 185 154 145 152 159 141 148 140 136 122 117 111 111 105 106 105 98 90 95 110 116 112 113 115 112 110 110 110 111 115 116 122 135 119 116 120 115 116 116 114 114 102 97 91
249 306 338 326 220 179 181 136 151 146 144 144 143 136 127 130 117 115 109 109 102 95 94 94 111 115 119 118 126 122 119 112 107 104 107 112 123 112 111 123 123 125 121 121 121 112 105 96 99
251 299 332 346 226 211 196 145 146 148 148 147 144 142 126 127 116 111 111 113 106 97 97 93 105 113 115 115 106 112 121 112 111 109 109 107 96 97 107 128 144 136 123 121 123 113 113 109 106
255 303 328 336 297 321 179 164 155 157 158 149 142 139 131 120 119 122 118 115 117 109 102 101 95 103 106 115 110 110 113 105 100 101 108 112 103 100 101 103 147 137 133 127 121 121 116 114 110
237 292 322 333 316 118 150 158 170 164 155 148 143 135 142 133 122 112 116 126 121 110 104 102 96 98 102 115 118 113 112 107 103 106 109 116 110 109 110 113 134 134 131 120 115 122 118 113 115
232 280 339 45 85 251 161 160 154 166 159 153 155 140 136 125 128 120 129 126 128 117 106 103 98 94 102 107 109 111 109 108 104 98 105 111 114 121 118 122 129 130 127 124 124 126 123 118 113
220 281 337 123 97 115 175 158 169 165 159 156 160 149 150 154 145 138 140 133 128 121 112 111 106 102 102 101 103 108 109 104 101 94 100 106 121 129 125 129 131 130 129 128 131 131 127 121 115
206 242 357 235 59 184 103 137 142 152 152 165 167 161 164 160 154 141 143 144 140 131 123 113 114 109 111 108 102 115 112 104 98 94 99 106 119 139 133 130 131 129 129 130 135 134 130 121 117
201 192 172 123 259 146 166 179 158 174 205 176 167 171 171 163 162 148 145 150 146 136 133 124 120 118 116 109 108 115 119 112 108 97 103 117 118 130 135 135 135 134 132 136 140 138 128 123 118
200 197 188 211 234 232 199 186 206 207 175 177 171 176 170 167 166 150 158 155 151 144 140 129 122 125 120 111 109 119 122 114 111 107 107 114 128 137 140 140 142 138 133 142 145 139 133 128 127
202 207 199 199 226 217 233 229 251 197 195 184 179 178 170 176 167 161 168 160 155 156 146 135 133 122 118 109 111 119 127 124 117 112 112 119 129 139 143 147 147 142 141 148 145 136 137 132 133
203 207 201 215 214 234 229 212 227 183 189 188 180 178 180 183 171 172 167 168 159 162 150 139 131 127 122 123 126 114 121 126 123 118 118 121 132 142 146 153 157 148 148 151 142 144 140 138 134
207 205 210 217 214 239 278 280 208 200 188 186 180 178 182 181 178 171 171 169 166 163 155 146 141 130 128 126 122 121 119 123 130 131 126 124 128 135 139 151 157 152 152 147 148 145 142 139 137
212 209 211 212 222 230 235 261 232 184 179 184 181 182 176 177 180 175 173 175 171 173 160 153 149 147 138 130 123 122 118 123 134 142 140 140 135 135 138 144 145 147 149 151 153 151 148 141 144
214 214 214 216 221 228 238 229 230 185 181 183 185 186 180 178 182 179 173 179 178 177 168 166 162 154 149 143 140 133 131 129 138 148 151 155 151 146 142 140 141 143 152 157 156 157 151 137 138
216 215 214 219 222 223 226 206 178 200 186 195 195 189 186 183 183 180 180 181 185 183 176 173 175 166 160 157 150 142 149 144 143 149 156 161 166 159 154 151 149 154 163 166 164 164 162 158 150
215 219 220 222 226 220 227 242 261 283 214 202 198 198 191 196 189 185 183 187 189 188 184 183 180 178 173 167 172 171 162 161 162 155 152 161 169 173 165 163 163 160 167 176 176 179 179 175 178
214 218 221 223 224 225 231 226 239 250 266 303 227 202 194 199 203 195 189 189 193 193 188 192 187 189 185 185 183 185 186 180 175 173 157 157 170 179 182 176 177 174 171 179 189 190 193 190 189
214 220 227 226 223 225 235 231 244 250 262 263 285 208 198 199 201 202 197 196 196 199 199 196 198 198 193 192 196 193 192 194 183 186 173 170 172 179 186 183 186 186 184 185 189 195 197 201 203
211 219 227 229 225 226 231 231 228 227 236 240 288 187 194 197 206 206 209 202 207 204 205 209 206 206 203 196 202 207 200 199 197 199 198 187 188 186 184 186 189 190 193 197 197 197 199 201 208
214 217 223 229 228 226 230 231 230 232 233 209 172 187 195 201 203 207 210 216 213 211 215 212 214 217 216 205 206 209 212 209 210 213 216 215 204 202 198 197 203 202 204 208 206 203 206 208 209
211 212 217 226 231 229 232 230 230 222 208 202 193 201 218 208 201 209 210 219 243 216 225 224 213 219 222 219 211 211 216 214 218 219 226 228 225 221 224 217 210 211 215 215 219 214 208 214 216
212 216 219 224 228 229 230 230 227 225 220 215 212 215 221 210 198 200 208 216 243 232 246 217 214 215 219 221 219 220 219 220 219 219 228 234 232 234 229 229 229 227 226 224 224 225 223 218 221
Height
5890 5892 5892 5892 5894 5891 5892 5894 5894 5894 5896 5897 5897 5898 5899 5898 5900 5902 5900 5901 5901 5901 5901 5902 5901 5900 5899 5899 5898 5900 5900 5901 5902 5903 5903 5904 5905 5906 5906 5907 5907 5907 5906 5907 5909 5909 5910 5910 5911
5891 5891 5892 5890 5890 5891 5893 5893 5894 5895 5896 5897 5900 5899 5899 5900 5901 5902 5902 5902 5903 5903 5904 5904 5903 5903 5902 5901 5901 5902 5902 5903 5904 5905 5906 5906 5905 5907 5908 5908 5909 5909 5909 5909 5910 5911 5912 5912 5912
5890 5891 5892 5888 5886 5888 5893 5894 5895 5897 5897 5897 5900 5901 5901 5901 5902 5904 5904 5904 5904 5904 5905 5905 5905 5904 5904 5904 5903 5904 5904 5904 5905 5906 5907 5908 5908 5908 5910 5910 5911 5911 5912 5912 5912 5913 5914 5915 5915
5890 5891 5892 5891 5889 5889 5892 5893 5895 5897 5899 5899 5900 5903 5902 5902 5903 5905 5905 5905 5906 5906 5906 5907 5906 5905 5905 5905 5905 5905 5905 5906 5907 5908 5909 5910 5910 5910 5911 5912 5913 5913 5913 5913 5912 5914 5916 5917 5918
5890 5889 5888 5889 5891 5892 5892 5894 5895 5896 5900 5902 5901 5902 5904 5904 5905 5906 5907 5907 5908 5908 5908 5909 5908 5906 5906 5906 5906 5907 5908 5908 5908 5909 5910 5911 5910 5912 5912 5913 5914 5915 5915 5916 5917 5918 5919 5919 5920
5889 5889 5883 5887 5890 5892 5893 5896 5899 5898 5898 5902 5903 5903 5906 5906 5907 5907 5908 5909 5909 5910 5910 5910 5909 5908 5907 5907 5908 5909 5910 5910 5910 5911 5912 5912 5912 5913 5914 5914 5916 5917 5918 5919 5920 5921 5921 5922 5921
5890 5888 5888 5886 5889 5891 5893 5895 5899 5899 5900 5903 5903 5905 5907 5907 5908 5909 5909 5910 5911 5911 5911 5911 5911 5910 5909 5909 5910 5911 5912 5912 5912 5913 5913 5913 5914 5914 5916 5917 5918 5919 5920 5921 5921 5922 5923 5923 5924
5888 5888 5887 5886 5886 5885 5889 5894 5899 5901 5901 5904 5905 5905 5907 5909 5909 5910 5910 5911 5912 5912 5912 5912 5912 5911 5911 5911 5912 5912 5913 5914 5914 5914 5915 5915 5915 5914 5918 5919 5921 5922 5922 5923 5924 5924 5925 5925 5925
5887 5888 5887 5885 5885 5886 5886 5893 5898 5900 5902 5905 5907 5907 5905 5909 5910 5912 5912 5913 5913 5913 5914 5914 5913 5913 5913 5913 5913 5914 5915 5916 5917 5917 5916 5916 5915 5917 5919 5921 5922 5923 5925 5926 5926 5927 5927 5927 5927
5885 5887 5887 5887 5885 5880 5886 5892 5896 5900 5902 5905 5906 5908 5908 5910 5910 5913 5913 5914 5914 5915 5915 5915 5915 5914 5914 5914 5915 5916 5917 5918 5918 5918 5919 5919 5919 5920 5921 5921 5924 5926 5927 5928 5929 5929 5929 5930 5930
5885 5887 5886 5885 5884 5884 5888 5893 5896 5898 5902 5905 5903 5907 5911 5911 5911 5914 5915 5916 5916 5917 5917 5917 5916 5916 5915 5916 5917 5918 5918 5919 5920 5920 5920 5920 5921 5922 5922 5922 5924 5928 5929 5931 5932 5932 5932 5933 5934
5885 5886 5886 5884 5885 5885 5888 5892 5896 5898 5903 5906 5906 5906 5910 5913 5913 5916 5918 5918 5918 5919 5918 5918 5917 5917 5917 5917 5918 5919 5920 5921 5921 5922 5922 5922 5922 5924 5925 5926 5928 5930 5932 5934 5935 5936 5937 5938 5938
5884 5886 5886 5882 5885 5886 5886 5891 5893 5899 5902 5905 5906 5907 5910 5915 5915 5917 5919 5920 5920 5920 5920 5920 5919 5920 5919 5919 5920 5921 5922 5922 5923 5924 5924 5925 5925 5926 5927 5929 5931 5933 5935 5937 5938 5939 5941 5942 5943
5884 5885 5886 5885 5875 5885 5883 5890 5893 5898 5901 5904 5906 5908 5911 5914 5915 5917 5920 5921 5921 5921 5922 5922 5921 5922 5922 5922 5922 5923 5924 5924 5925 5926 5926 5926 5927 5929 5930 5932 5934 5936 5938 5940 5941 5942 5944 5945 5945
5883 5884 5885 5885 5884 5884 5888 5892 5894 5897 5901 5904 5906 5908 5911 5914 5917 5918 5920 5922 5922 5923 5923 5924 5923 5924 5924 5924 5925 5925 5926 5927 5927 5927 5928 5929 5930 5932 5933 5935 5937 5939 5940 5942 5944 5945 5947 5949 5949
5883 5885 5885 5887 5887 5888 5892 5893 5895 5898 5900 5903 5906 5908 5911 5914 5917 5919 5921 5923 5924 5925 5926 5926 5925 5926 5926 5926 5927 5927 5928 5929 5929 5930 5931 5932 5934 5936 5937 5939 5940 5941 5943 5945 5947 5949 5951 5953 5953
5881 5884 5885 5888 5888 5889 5892 5894 5896 5896 5900 5903 5905 5907 5912 5915 5917 5920 5923 5925 5925 5926 5927 5928 5927 5928 5928 5928 5929 5930 5931 5931 5932 5932 5934 5935 5936 5938 5940 5942 5944 5944 5946 5948 5950 5952 5954 5956 5957
5880 5883 5885 5887 5888 5888 5891 5892 5892 5895 5898 5901 5903 5907 5910 5914 5916 5920 5924 5925 5927 5928 5929 5929 5929 5929 5929 5930 5931 5931 5932 5933 5934 5935 5936 5938 5939 5941 5943 5945 5946 5947 5948 5950 5952 5955 5956 5958 5959
5877 5881 5884 5884 5887 5887 5889 5891 5892 5892 5896 5899 5901 5906 5909 5913 5915 5920 5924 5926 5927 5930 5930 5930 5932 5931 5930 5931 5933 5932 5933 5934 5936 5937 5938 5940 5942 5944 5945 5947 5948 5949 5950 5953 5955 5956 5958 5961 5962
5873 5878 5880 5882 5885 5887 5887 5888 5889 5891 5896 5898 5900 5904 5907 5912 5916 5920 5923 5926 5928 5930 5931 5931 5932 5933 5932 5932 5934 5935 5935 5935 5937 5939 5940 5941 5944 5946 5947 5949 5950 5951 5953 5955 5957 5959 5960 5962 5964
5870 5874 5877 5879 5882 5885 5887 5888 5890 5887 5892 5896 5899 5902 5905 5911 5914 5918 5921 5924 5927 5930 5932 5932 5932 5933 5933 5933 5935 5937 5937 5937 5939 5941 5942 5943 5945 5948 5949 5950 5952 5953 5955 5956 5959 5961 5963 5964 5966
5866 5869 5873 5875 5878 5882 5886 5887 5888 5888 5889 5895 5897 5902 5903 5909 5912 5913 5919 5923 5925 5929 5931 5932 5933 5933 5934 5934 5936 5939 5939 5940 5940 5942 5944 5945 5947 5949 5951 5952 5953 5955 5957 5959 5960 5962 5965 5966 5967
5862 5865 5867 5871 5875 5881 5885 5886 5887 5889 5891 5894 5897 5900 5903 5906 5911 5914 5918 5922 5925 5927 5930 5932 5933 5932 5933 5935 5936 5938 5940 5941 5942 5943 5944 5947 5948 5949 5951 5952 5954 5956 5958 5960 5961 5962 5965 5967 5969
5856 5859 5864 5868 5871 5879 5881 5885 5886 5887 5890 5892 5895 5898 5903 5906 5909 5911 5915 5919 5923 5926 5928 5930 5932 5932 5933 5935 5937 5939 5940 5942 5944 5945 5945 5947 5949 5950 5951 5953 5955 5956 5959 5961 5962 5963 5965 5968 5970
5849 5854 5858 5864 5868 5876 5878 5883 5885 5887 5887 5890 5892 5897 5899 5904 5908 5911 5915 5919 5922 5923 5925 5928 5929 5931 5932 5934 5937 5939 5941 5942 5943 5944 5945 5947 5949 5950 5952 5953 5955 5957 5958 5960 5962 5964 5966 5968 5969
5845 5850 5854 5858 5866 5873 5874 5880 5884 5886 5887 5889 5891 5890 5895 5900 5906 5910 5914 5917 5920 5921 5922 5925 5928 5930 5931 5933 5936 5938 5940 5942 5943 5944 5944 5946 5948 5950 5951 5953 5955 5957 5958 5960 5962 5964 5966 5968 5970
5839 5843 5850 5854 5864 5868 5870 5876 5881 5884 5887 5887 5887 5889 5894 5898 5902 5906 5910 5916 5918 5919 5920 5923 5925 5928 5930 5931 5934 5936 5939 5941 5943 5944 5946 5946 5949 5949 5950 5953 5955 5956 5958 5960 5961 5963 5966 5968 5970
5833 5844 5846 5848 5857 5861 5866 5872 5876 5882 5886 5887 5888 5892 5894 5896 5899 5902 5907 5912 5914 5916 5919 5920 5923 5927 5930 5931 5932 5935 5937 5940 5942 5944 5947 5948 5949 5950 5951 5953 5955 5957 5958 5960 5961 5962 5965 5966 5968
5827 5832 5838 5845 5851 5857 5862 5869 5874 5879 5884 5886 5887 5888 5891 5893 5896 5897 5901 5905 5906 5910 5914 5916 5920 5923 5926 5929 5929 5932 5935 5937 5939 5943 5946 5947 5950 5951 5952 5953 5954 5955 5957 5959 5961 5962 5963 5966 5967
5823 5829 5836 5840 5845 5851 5857 5865 5870 5876 5880 5884 5887 5888 5889 5890 5892 5895 5897 5900 5902 5902 5908 5910 5914 5919 5923 5925 5927 5929 5932 5935 5936 5939 5942 5945 5947 5949 5950 5952 5954 5955 5957 5958 5960 5961 5962 5964 5965